Volver al catálogo

STARLINK-37633

ActivoComunicacionesSSO
NORAD 69133·PAYLOAD·🇺🇸 United States

Lanzado May 20, 2026 desde Vandenberg Space Force Base

Loading…

Próximos Pases (próximas 24 horas)

TLE

ActualizadoSource: CelesTrak SupGP

Época: Sep 15, 2026, 03:01 UTC

1 69133C 26110K   26258.12618056 -.00036966  00000+0 -11474-2 0  2582
2 69133  97.2855  93.2464 0001763  90.6084 199.2671 15.33458783    15

Sigue STARLINK-37633 en tiempo real con AllMySat

Download on the App Store